カタログに戻る

COSMOS 1261 DEB

運用中HEO
NORAD 12894·DEBRIS·🇷🇺 Russia

打ち上げ Mar 31, 1981 から Plesetsk Cosmodrome

Loading…

次のパス (今後24時間)

TLE

最新Source: Space-Track

元期: Sep 8, 2026, 14:24 UTC

1 12894U 81031G   26251.60067885  .00000337  00000-0  00000-0 0  9996
2 12894  69.8461  89.3144 5601632 347.0386 217.0350  2.00491147303432

AllMySatでCOSMOS 1261 DEBをリアルタイム追跡

Download on the App Store